[[{"header":{"parameterUnit":"m.s-1","parameterCategory":1,"la1":30.2992,"la2":30.254,"lo1":-89.0895,"lo2":-89.0443,"dy":0.0025,"dx":0.0025,"nx":19,"ny":19,"refTime":"2026-05-24T09:00:00:Z","depth":0,"parameterNumber":2,"parameterNumberName":"U-component_of_WINDS"},"data":[0,0,0,-4.4337,-4.4342,-4.4599,-4.46,-4.491,-4.4912,0,0,0,0,0,0,0,0,0,0,0,-4.4248,-4.425,-4.4336,-4.4343,-4.4599,-4.46,-4.4909,-4.4912,0,0,0,0,0,0,0,0,0,0,0,-4.4248,-4.425,-4.4252,-4.4343,-4.4599,-4.46,-4.4909,-4.4722,0,0,0,0,0,0,0,0,0,0,-4.4476,-4.4382,-4.4249,-4.4252,-4.4345,-4.4599,-4.4601,-4.4713,-4.4734,-4.4785,0,-4.4827,0,-4.4874,-4.4932,-4.4933,0,0,0,-4.4352,-4.4365,-4.4445,-4.4252,-4.4347,-4.4598,-4.4486,-4.4725,-4.4748,-4.4812,-4.4831,-4.4843,-4.4879,-4.4934,-4.4935,-4.5197,-4.5197,0,0,-4.4338,-4.4288,-4.4429,-4.4459,-4.4418,-4.4478,-4.4494,-4.4739,-4.4757,-4.4832,-4.4851,-4.4884,-4.4936,-4.4938,-4.5196,-4.5197,0,0,0,-4.4291,-4.4278,-4.4353,-4.4446,-4.4494,-4.4485,-4.4504,-4.4747,-4.4775,-4.4854,-4.4888,-4.4937,-4.4941,-4.5195,-4.5196,-4.5184,0,0,0,-4.4283,-4.4251,-4.4346,-4.4318,-4.4489,-4.4623,-4.4505,-4.4758,-4.4787,-4.4886,-4.4937,-4.4944,-4.5194,-4.5196,-4.5183,-4.5186,0,0,0,-4.4236,-4.4245,-4.4278,-4.4315,-4.4424,-4.462,-4.4663,-4.4765,-4.4807,-4.4933,-4.4944,-4.5194,-4.5195,-4.5182,-4.5185,-4.5239,0,0,0,-4.4172,-4.4266,-4.4277,-4.4395,-4.4421,-4.4611,-4.4662,-4.4807,-4.4913,-4.4939,-4.5194,-4.5196,-4.5181,-4.5183,-4.5237,-4.5274,-4.5285,0,0,-4.4262,-4.4275,-4.4348,-4.4366,-4.454,-4.4576,-4.475,-4.4896,-4.4954,-4.5112,-4.512,-4.5183,-4.5184,-4.5238,-4.5369,-4.5377,0,0,0,-4.4359,-4.4411,-4.4468,-4.4566,-4.4679,-4.4775,-4.4899,-4.4953,-4.509,-4.5025,-4.522,-4.5223,-4.5256,-4.5276,-4.5283,-4.5315,-4.5204,-4.5204,-4.5203,-4.4415,-4.4483,-4.4608,-4.4707,-4.4802,-4.4928,-4.5011,-4.5105,-4.5148,-4.5193,-4.5239,-4.531,-4.5331,-4.5337,-4.5369,-4.5267,-4.5267,-4.5267,-4.5267,-4.4551,-4.4634,-4.4687,-4.4827,-4.4899,-4.5018,-4.5143,-4.5169,-4.529,-4.5281,-4.5314,-4.5296,-4.5344,-4.5376,-4.5266,-4.5266,-4.5266,-4.5266,-4.5266,-4.4593,-4.4645,-4.4708,-4.4856,-4.4962,-4.5061,-4.5173,-4.5236,-4.5296,-4.5329,-4.5384,-4.5384,-4.5391,-4.5351,-4.5351,-4.5352,-4.5352,-4.5352,-4.5352,-4.4611,-4.4683,-4.4769,-4.4895,-4.4966,-4.5067,-4.5194,-4.5266,-4.5361,-4.5398,-4.5399,-4.5435,-4.5337,-4.5309,-4.5356,-4.5356,-4.5355,-4.5355,-4.5354,-4.472,-4.4705,-4.4838,-4.4909,-4.5062,-4.5162,-4.5241,-4.5381,-4.545,-4.5503,-4.5534,-4.5451,-4.5469,-4.5463,-4.5441,-4.552,-4.552,-4.552,-4.552,-4.4754,-4.4769,-4.4918,-4.5026,-4.514,-4.5224,-4.5372,-4.5472,-4.5574,-4.562,-4.5619,-4.5595,-4.5587,-4.5609,-4.5601,-4.5581,-4.5693,-4.5694,-4.5694,-4.4824,-4.4852,-4.4966,-4.5063,-4.5187,-4.5292,-4.5433,-4.5556,-4.5669,-4.5702,-4.5658,-4.5651,-4.5613,-4.5598,-4.5628,-4.5613,-4.5578,0,0]},{"header":{"parameterUnit":"m.s-1","parameterCategory":1,"la1":30.2992,"la2":30.254,"lo1":-89.0895,"lo2":-89.0443,"dy":0.0025,"dx":0.0025,"nx":19,"ny":19,"refTime":"2026-05-24T09:00:00:Z","depth":0,"parameterNumber":3,"parameterNumberName":"V-component_of_WINDS"},"data":[0,0,0,6.4466,6.447,6.4647,6.4647,6.4888,6.4891,0,0,0,0,0,0,0,0,0,0,0,6.4423,6.4424,6.4465,6.447,6.4647,6.4647,6.4888,6.4891,0,0,0,0,0,0,0,0,0,0,0,6.4422,6.4424,6.4426,6.4471,6.4647,6.4648,6.4887,6.4749,0,0,0,0,0,0,0,0,0,0,6.4574,6.4544,6.4423,6.4426,6.4472,6.4646,6.4648,6.4742,6.4757,6.4815,0,6.4869,0,6.4884,6.4908,6.4909,0,0,0,6.4463,6.4531,6.457,6.4427,6.4473,6.4646,6.4565,6.475,6.4768,6.4835,6.4872,6.488,6.4888,6.4909,6.4911,6.5265,6.5267,0,0,6.4453,6.446,6.4558,6.4582,6.4556,6.4559,6.4571,6.4761,6.4801,6.4873,6.4886,6.4892,6.4911,6.4913,6.5263,6.5265,0,0,0,6.443,6.4453,6.4487,6.4572,6.4603,6.4565,6.4578,6.4792,6.4803,6.4888,6.4894,6.4913,6.4916,6.5261,6.5264,6.5368,0,0,0,6.4423,6.4439,6.4483,6.4489,6.46,6.47,6.4605,6.479,6.4811,6.4893,6.4913,6.4918,6.5259,6.5262,6.536,6.5416,0,0,0,6.4408,6.4437,6.4466,6.4489,6.4565,6.4697,6.4718,6.4794,6.4815,6.4909,6.4919,6.5257,6.5262,6.5353,6.5405,6.551,0,0,0,6.4393,6.4557,6.4468,6.4653,6.4564,6.476,6.4717,6.4863,6.4956,6.4914,6.5259,6.5264,6.5351,6.5398,6.5503,6.56,6.5641,0,0,6.4603,6.4583,6.4691,6.4617,6.483,6.4732,6.4961,6.504,6.5043,6.5191,6.5199,6.5363,6.5404,6.5509,6.5869,6.5902,0,0,0,6.476,6.4838,6.4893,6.4981,6.5046,6.5105,6.5148,6.5177,6.5301,6.5121,6.5429,6.5454,6.5515,6.5561,6.5589,6.564,6.5285,6.5285,6.5284,6.5068,6.5062,6.5241,6.5256,6.5343,6.5385,6.5454,6.55,6.547,6.5543,6.5587,6.5806,6.586,6.5881,6.5935,6.5637,6.5638,6.5638,6.5639,6.5375,6.5484,6.5439,6.5596,6.5589,6.5721,6.5767,6.5741,6.5862,6.5773,6.5827,6.5729,6.5917,6.5964,6.5646,6.5645,6.5644,6.5643,6.5643,6.5576,6.5627,6.5659,6.5785,6.5883,6.5892,6.601,6.6,6.5991,6.6044,6.6088,6.6086,6.6083,6.6066,6.6066,6.6067,6.6068,6.6068,6.6069,6.5772,6.5804,6.5905,6.5985,6.6039,6.611,6.6153,6.6206,6.6262,6.6245,6.6245,6.6207,6.5937,6.5868,6.6081,6.6078,6.6077,6.6076,6.6075,6.6085,6.6012,6.6168,6.6222,6.6314,6.6411,6.6396,6.6505,6.6547,6.6606,6.6556,6.6358,6.6335,6.6313,6.6257,6.6557,6.6557,6.6557,6.6557,6.6254,6.6242,6.6397,6.6485,6.6569,6.657,6.6745,6.678,6.6804,6.6829,6.6784,6.6709,6.6686,6.6677,6.6647,6.6594,6.6974,6.6974,6.6975,6.6446,6.6441,6.6593,6.6614,6.6685,6.6746,6.691,6.7012,6.7024,6.6991,6.6849,6.6832,6.6709,6.667,6.6634,6.6587,6.649,0,0]}]]